#timestamp,LO_Frequency,Hit,StdDev 
1575468015.2,286046998.9,N
1575468035.9,286046998.7,N
1575468055.7,286046998.7,N
1575468075.6,286047000.4,N
1575468095.4,286046996.7,N
1575468115.2,286046999.1,N
1575468135.1,286046999.6,N
1575468136.0,286046999.6,N
1575468155.8,286046998.9,N
1575468175.7,286046996.8,N
1575468195.5,286046995.0,Y
1575468215.3,286046996.6,P
1575468235.2,286046996.7,P
1575468255.0,286046998.7,N
1575468255.9,286046998.7,N
1575468275.8,286047001.0,N
1575468295.6,286047001.2,N
1575468315.4,286047001.1,N
1575468335.3,286047001.0,N
1575468355.1,286047000.5,N
1575468375.8,286047002.1,N
1575468395.7,286047002.1,N
1575468415.5,286046999.8,N
1575468435.4,286047002.7,N
1575468455.2,286047002.4,N
1575468475.0,286047002.4,N
1575468475.9,286047002.4,N
1575468495.8,286047002.5,N
1575468515.6,286046999.7,N
1575468535.4,286046999.8,N
1575468555.3,286047001.6,N
1575468575.1,286047003.1,N
1575468595.9,286047007.1,Y
1575468615.7,286047005.5,P
1575468635.5,286047005.1,N
1575468655.4,286047006.0,N
1575468675.2,286047004.1,N
1575468695.0,286047004.2,N
1575468696.0,286047004.2,N
1575468715.8,286047004.3,N
1575468735.6,286047003.9,N
1575468755.5,286047003.5,N
1575468775.3,286047004.2,Y
1575468795.1,286046998.6,P
1575468815.9,286047000.6,N
1575468835.7,286046998.1,N
1575468855.6,286046998.6,N
1575468875.4,286046998.5,N
1575468895.2,286047000.9,N
1575468915.1,286046998.8,N
1575468916.0,286046998.8,N
1575468935.8,286047001.2,N
1575468955.6,286046998.2,N
1575468975.5,286047011.9,Y
1575468995.3,286046998.5,P
1575469015.2,286046998.4,N
1575469035.9,286046999.2,N
1575469055.7,286046999.3,N
1575469075.6,286046996.9,Y
1575469095.4,286046997.2,P
1575469115.3,286046999.4,N
1575469135.1,286046997.0,P
1575469136.0,286046997.0,N
1575469155.8,286046999.6,N
1575469175.7,286046996.5,Y
1575469195.5,286046998.5,P
1575469215.4,286046998.2,P
1575469235.2,286047000.0,N
1575469255.0,286046998.7,N
1575469255.9,286046998.7,N
1575469275.8,286046996.5,Y
1575469295.6,286046998.5,P
1575469315.4,286046998.4,P
1575469335.3,286047000.8,P
1575469355.1,286046998.7,N
1575469375.9,286046998.7,N
1575469395.7,286047000.9,N
1575469415.5,286047000.7,N
1575469435.4,286047000.2,N
1575469455.2,286047000.4,N
1575469475.0,286047000.4,N
1575469476.0,286047000.4,N
1575469495.8,286047000.4,N
1575469515.6,286047000.6,N
1575469535.5,286046999.1,N
1575469555.3,286046999.0,N
1575469575.1,286046998.1,N
1575469595.9,286046998.1,N
1575469615.7,286047000.5,N
1575469635.6,286047000.3,N
1575469655.4,286047000.8,N
1575469675.2,286047000.8,N
1575469695.1,286047001.0,N
1575469696.0,286047001.0,N
1575469715.8,286047000.0,N
1575469735.7,286047002.3,N
1575469755.5,286047002.0,N
1575469775.3,286047002.5,N
1575469795.2,286046999.7,N
1575469815.0,286047002.2,N
1575469815.9,286047002.2,N
1575469835.7,286047002.7,N
1575469855.6,286047002.4,N
1575469875.4,286047002.5,N
1575469895.3,286047000.3,N
1575469915.1,286047000.5,N
1575469916.0,286047000.5,N
1575469935.8,286047000.5,N
1575469955.7,286047000.7,N
1575469975.5,286047000.8,N
1575469995.3,286046998.1,N
1575470015.2,286047000.3,N
1575470035.0,286047000.3,N
1575470035.9,286047000.3,N
1575470055.8,286047001.1,N
1575470075.6,286047000.8,N
1575470095.4,286046999.8,N
1575470115.3,286047000.8,N
1575470135.1,286047001.1,N
1575470155.9,286047000.9,N
1575470175.7,286047002.7,N
1575470195.5,286047001.1,N
1575470215.4,286047001.5,N
1575470235.2,286047001.5,N
1575470255.0,286047002.1,N
1575470255.9,286047002.1,N
1575470275.8,286047002.0,N
1575470295.6,286046999.9,N
1575470315.5,286047001.2,N
1575470335.3,286046998.1,N
1575470355.1,286047000.9,N
1575470375.9,286046998.3,N
1575470395.7,286046998.3,N
1575470415.5,286046998.3,N
1575470435.4,286046999.2,N
1575470455.2,286046999.6,N
1575470475.1,286046999.3,N
1575470476.0,286046999.3,N
1575470495.8,286046998.3,N
1575470515.6,286047000.1,N
1575470535.5,286047000.8,N
1575470555.3,286047000.2,N
1575470575.2,286046999.8,N
1575470595.9,286046999.9,N
1575470615.7,286047002.8,N
1575470635.6,286047000.6,N
1575470655.4,286046999.7,N
1575470675.2,286047000.0,N
1575470695.1,286047002.7,N
1575470696.0,286047002.7,N
1575470715.8,286047002.0,N
1575470735.7,286047004.0,N
1575470755.5,286047004.3,N
1575470775.3,286047001.5,N
1575470795.2,286047001.8,N
1575470815.0,286047001.7,N
1575470815.9,286047001.7,N
1575470835.8,286047003.2,N
1575470855.6,286047003.3,N
1575470875.4,286047004.8,N
1575470895.3,286047007.1,Y
1575470915.1,286047005.1,P
1575470935.8,286047005.5,N
1575470955.7,286047005.4,N
1575470975.5,286047005.9,Y
1575470995.4,286047001.7,P
1575471015.2,286046999.9,N
1575471035.0,286047004.1,N
1575471035.9,286047004.1,N
1575471055.8,286047001.5,N
1575471075.6,286047001.6,N
1575471095.5,286046999.7,N
1575471115.3,286046999.8,N
1575471135.1,286046999.8,N
1575471155.9,286046996.9,N
1575471175.7,286046996.9,N
1575471195.5,286046997.3,N
1575471215.4,286046995.1,N
1575471235.2,286046995.8,N
1575471255.1,286046996.1,N
1575471256.0,286046996.1,N
1575471275.8,286046996.2,N
1575471295.6,286046993.4,N
1575471315.5,286046995.8,N
1575471335.3,286046995.9,N
1575471355.1,286046995.5,N
1575471375.9,286046997.3,N
1575471395.7,286046997.5,N
1575471415.6,286046997.0,N
1575471435.4,286046997.3,N
1575471455.2,286046997.5,N
1575471475.1,286046997.0,N
1575471476.0,286046997.0,N
1575471495.8,286046996.5,N
1575471515.6,286046999.0,N
1575471535.5,286046998.2,N
1575471555.3,286046998.6,N
1575471575.2,286047000.6,N
1575471595.9,286047002.5,N
